Location: Audinghen
(50.8518°N, 1.6129°E)
Time: 05:58:15
(UTC+00:00)

Cosmos 1805 - Pass Details

Date: 07 August 2020
Orbit: 526 x 530 km, 82.5° (Epoch: 23 September)

Event Time Altitude Azimuth Distance (km) Brightness Sun altitude
Exits shadow 01:23:29 28° 128° (SE) 1,008 4.5 -20.3°
Maximum altitude 01:24:38 35° 92° (E) 873 4.5 -20.3°
Drops below altitude 10° 01:28:12 10° 26° (NNE) 1,781 7.1 -20.1°
Sets 01:30:28 0° 18° (NNE) 2,676 8.4 -19.9°
